N9OKI Weather Reports


time (UTC)temp
C
wind
direction
speed
KPH
gust
KPH
rain 1hr
cm
rain 24hr
cm
rain mn
cm
humidity
%
barometer
mb
20220812003029 28 328 0.0 0.0 0.00 0.03 0.03 59 1016.1
20220812001525 28 328 0.0 0.0 0.00 0.03 0.03 58 1016.0
20220812000038 28 328 0.0 0.0 0.00 0.03 0.03 55 1015.7
20220811234529 28 328 0.0 0.0 0.00 0.97 0.03 55 1015.8
20220811233033 28 327 0.0 0.0 0.00 0.97 0.03 53 1015.9
20220811231523 29 344 0.0 0.0 0.00 0.97 0.03 53 1015.8
20220811230045 29 5 0.0 0.0 0.00 0.97 0.03 52 1015.8
20220811224521 29 28 0.0 0.0 0.00 1.17 0.03 52 1015.7
20220811223021 29 355 0.0 0.0 0.00 1.17 0.03 51 1015.8
20220811221521 29 313 0.0 0.0 0.00 1.17 0.03 49 1016.0
20220811220032 29 338 0.0 0.0 0.00 1.17 0.03 48 1016.0
20220811214518 30 9 0.0 0.0 0.00 1.17 0.03 49 1016.0
20220811213018 29 55 0.0 0.0 0.00 1.17 0.03 49 1015.8
20220811211517 30 329 0.0 0.0 0.00 1.17 0.03 49 1016.0
20220811210014 30 26 0.0 0.0 0.00 1.17 0.03 49 1016.1
20220811204522 30 303 0.0 0.0 0.00 1.17 0.03 47 1016.3
20220811203011 30 344 0.0 0.0 0.00 1.17 0.03 47 1016.4
20220811201510 30 44 0.0 0.0 0.00 1.17 0.03 49 1016.5
20220811200012 30 257 0.0 0.0 0.00 1.17 0.03 49 1016.6
20220811194506 30 269 0.0 0.0 0.00 1.24 0.03 48 1016.7
20220811193004 30 5 0.0 0.0 0.00 1.24 0.03 46 1016.9
20220811191503 29 355 0.0 0.0 0.00 1.24 0.03 49 1017.0
20220811190002 29 13 0.0 0.0 0.00 1.24 0.03 46 1017.2
20220811184618 29 13 0.0 0.0 0.00 1.78 0.03 50 1017.4
20220811183058 30 355 0.0 0.0 0.00 1.78 0.03 52 1017.5
20220811181556 28 219 0.0 0.0 0.00 1.78 0.03 51 1017.6
20220811180053 28 350 0.0 0.0 0.00 1.78 0.03 52 1017.8
20220811174602 28 334 0.0 0.0 0.00 1.85 0.03 55 1017.9
20220811173049 28 229 0.0 0.0 0.00 1.85 0.03 51 1018.0
20220811171633 28 91 0.0 0.0 0.00 1.85 0.03 52 1018.2
20220811170045 28 342 0.0 0.0 0.00 1.85 0.03 55 1018.4
20220811164545 27 38 0.0 0.0 0.00 1.85 0.03 56 1018.4
20220811163041 27 313 0.0 0.0 0.00 1.85 0.03 55 1018.4
20220811161541 26 306 0.0 0.0 0.00 1.85 0.03 56 1018.5
20220811160036 27 350 0.0 0.0 0.00 1.85 0.03 58 1018.7
20220811154535 26 346 0.0 0.0 0.00 1.85 0.03 58 1018.8
20220811153031 26 207 0.0 0.0 0.00 1.85 0.03 60 1018.8
20220811151528 26 355 0.0 0.0 0.00 1.85 0.03 61 1018.8
20220811150029 25 44 0.0 0.0 0.00 1.85 0.03 63 1018.8
20220811144520 23 28 0.0 0.0 0.00 1.85 0.03 72 1018.8
20220811143034 22 55 0.0 0.0 0.00 1.85 0.03 83 1018.7
20220811141517 21 32 0.0 0.0 0.00 1.85 0.03 88 1018.7
20220811140019 21 62 0.0 0.0 0.00 1.85 0.03 90 1018.6
20220811134512 20 19 0.0 0.0 0.00 1.85 0.03 90 1018.8
20220811133014 20 5 0.0 0.0 0.00 1.85 0.03 90 1018.6
20220811131510 20 5 0.0 0.0 0.00 1.85 0.03 90 1018.6
20220811130008 20 304 0.0 0.0 0.00 1.85 0.03 91 1018.6
20220811124520 20 213 0.0 0.0 0.00 1.85 0.03 90 1018.5
20220811123014 19 213 0.0 0.0 0.00 1.85 0.03 90 1018.3
20220811121504 19 213 0.0 0.0 0.00 1.85 0.03 90 1018.2
20220811120001 19 213 0.0 0.0 0.00 1.85 0.03 90 1018.3
20220811114620 18 213 0.0 0.0 0.00 1.85 0.03 90 1018.3
20220811113105 18 213 0.0 0.0 0.00 1.85 0.03 90 1018.2
20220811111557 19 213 0.0 0.0 0.00 1.85 0.03 90 1018.1
20220811110054 19 213 0.0 0.0 0.00 1.85 0.03 89 1018.0
20220811104624 19 213 0.0 0.0 0.00 1.85 0.03 89 1017.9
20220811103101 19 213 0.0 0.0 0.03 1.85 0.03 89 1017.8
20220811101600 19 213 0.0 0.0 0.03 1.85 0.03 89 1017.6
20220811100120 20 213 0.0 0.0 0.03 1.85 0.03 89 1017.7
20220811094548 20 213 0.0 0.0 0.03 1.85 0.03 89 1017.7
20220811093054 20 213 0.0 0.0 0.00 1.83 0.00 89 1017.7
20220811091546 20 213 0.0 0.0 0.00 1.83 0.00 89 1017.8
20220811090045 20 213 0.0 0.0 0.00 1.83 0.00 89 1018.0
20220811084543 20 213 0.0 0.0 0.00 1.83 0.00 89 1017.9
20220811083041 20 213 0.0 0.0 0.00 1.83 0.00 89 1017.8
20220811081545 20 213 0.0 0.0 0.00 1.83 0.00 89 1017.7
20220811080048 21 213 0.0 0.0 0.00 1.83 0.00 89 1017.8
20220811074536 21 213 0.0 0.0 0.00 1.83 0.00 89 1017.7
20220811073040 21 213 0.0 0.0 0.00 1.83 0.00 89 1017.8
20220811071610 21 213 0.0 0.0 0.00 1.83 0.00 89 1017.6
20220811070035 21 213 0.0 0.0 0.00 1.83 0.00 89 1017.8
20220811064533 21 213 0.0 0.0 0.00 1.83 0.00 89 1017.7
20220811063035 22 213 0.0 0.0 0.00 1.83 0.00 89 1017.6
20220811061534 22 213 0.0 0.0 0.00 1.83 0.00 89 1017.7
20220811060027 22 213 0.0 0.0 0.00 1.83 0.00 89 1017.7
20220811054525 22 213 0.0 0.0 0.00 1.83 0.00 89 1017.6
20220811053024 22 213 0.0 0.0 0.00 1.83 0.00 89 1017.5
20220811051526 22 213 0.0 0.0 0.00 1.83 0.00 89 1017.6
20220811050035 22 212 0.0 0.0 0.00 1.83 0.00 88 1017.7
20220811044527 22 212 0.0 0.0 0.00 1.83 0.00 88 1017.6
20220811043034 22 212 0.0 0.0 0.00 1.83 0.00 88 1017.7
20220811041517 23 212 0.0 0.0 0.00 1.83 0.00 88 1017.5
20220811040030 23 212 0.0 0.0 0.00 1.83 0.00 88 1017.5
20220811034530 23 212 0.0 0.0 0.00 1.83 1.83 88 1017.4
20220811033017 23 212 0.0 0.0 0.00 1.83 1.83 88 1017.5
20220811030010 23 212 0.0 0.0 0.00 1.83 1.83 88 1017.9
20220811024515 23 212 0.0 0.0 0.00 1.83 1.83 87 1017.9
20220811023010 23 212 0.0 0.0 0.00 1.83 1.83 87 1017.8
20220811021510 23 212 0.0 0.0 0.00 1.83 1.83 87 1017.7
20220811020006 23 214 0.0 0.0 0.00 1.83 1.83 87 1017.5
20220811014505 24 212 0.0 0.0 0.00 1.83 1.83 86 1017.4
20220811013009 24 215 0.0 0.0 0.00 1.83 1.83 86 1017.0
20220811011505 24 215 0.0 0.0 0.00 1.83 1.83 86 1016.9
20220811010003 24 215 0.0 0.0 0.00 1.83 1.83 85 1016.9
20220811004505 25 157 0.0 3.2 0.46 1.88 1.83 85 1016.8